User: anonymous   Login
Location: Unspecified
(0.0000°N, 0.0000°E)
Time: 13:01:09
(UTC+00:00)
Language:

Nova 2 - Orbit

View from above orbital plane
View from above orbital plane
View from above satellite
View from above satellite

Ground track
Ground track

The orbit data is extracted from the following two-line orbital elements,

1 19223U 88052A   21015.92979687  .00000072  00000-0  15103-3 0  9998
2 19223  89.9688  82.3856 0028622 270.8164 263.1645 13.22713825572596
Epoch (UTC): 15 January 2021 22:18:54
Eccentricity: 0.0028622
inclination: 89.9688°
perigee height: 1153 km
apogee height: 1196 km
right ascension of ascending node: 82.3856°
argument of perigee: 270.8164°
revolutions per day: 13.22713825
mean anomaly at epoch: 263.1645°
orbit number at epoch: 57259

The dashed part of the orbit path shows where the satellite is in the earth's shadow,  

DLR